Goldsboro, NC

2:51 AM EDT on June 28, 2017 (GMT -0400)
Seymour Johnson Air Force Base

Weather History for KGSB - August, 2013

Change the Weather History Date:

Tuesday, August 27, 2013

  Actual Average Record
Temperature  
Mean Temperature 74 °F -  
Max Temperature 86 °F 85 °F 96 °F (2016)
Min Temperature 63 °F 68 °F 63 °F (2013)
Cooling Degree Days 10    
Growing Degree Days 24 (Base 50)    
Moisture  
Dew Point 66 °F    
Average Humidity 74    
Maximum Humidity 93    
Minimum Humidity 55    
Precipitation  
Precipitation 0.00 in - - ()
Sea Level Pressure  
Sea Level Pressure 30.03 in    
Wind  
Wind Speed 5 mph (SW)    
Max Wind Speed 9 mph    
Max Gust Speed -    
Visibility 10 miles    
Events      
Averages and records for this station are not official NWS values.
T = Trace of Precipitation, MM = Missing Value Source: NWS Daily Summary

Daily Weather History Graph

Daily Weather History Graph

Search for Another Location

Airport or City:

Trip Planner

Search our weather history database for the weather conditions in past years. The results will help you decide how hot, cold, wet, or windy it might be!

Date:

Astronomy

Aug. 27, 2013 Rise Set
Actual Time 6:40 AM EDT 7:45 PM EDT
Civil Twilight 6:14 AM EDT 8:11 PM EDT
Nautical Twilight 5:43 AM EDT 8:42 PM EDT
Astronomical Twilight 5:10 AM EDT 9:14 PM EDT
Moon 11:53 PM EDT (8/27) 1:20 PM EDT (8/27)
Length of Visible Light 13h 56m
Length of Day
13h 04m
Waning Gibbous, 57% of the Moon is Illuminated
Aug 27
Waning Gibbous
Aug 28
Last Quarter
Sep 5
New
Sep 12
First Quarter
Sep 19
Full

Hourly Weather History & Observations

Time (EDT) Temp. Heat Index Dew Point Humidity Pressure Visibility Wind Dir Wind Speed Gust Speed Precip Events Conditions
12:58 AM 66.7 °F - 62.2 °F 85% 30.13 in 10.0 mi South 2.3 mph - N/A   Clear
1:58 AM 66.0 °F - 62.1 °F 87% 30.11 in 10.0 mi South 2.3 mph - N/A   Clear
2:58 AM 65.5 °F - 62.2 °F 89% 30.09 in 10.0 mi SSW 3.5 mph - N/A   Clear
3:58 AM 65.3 °F - 62.4 °F 90% 30.08 in 10.0 mi West 2.3 mph - N/A   Clear
4:58 AM 64.4 °F - 62.4 °F 93% 30.07 in 10.0 mi SW 4.6 mph - N/A   Clear
5:58 AM 64.4 °F - 60.6 °F 88% 30.07 in 10.0 mi WSW 5.8 mph - N/A   Clear
6:58 AM 63.7 °F - 59.0 °F 85% 30.07 in 10.0 mi SW 4.6 mph - N/A   Clear
7:58 AM 66.4 °F - 59.9 °F 80% 30.07 in 10.0 mi WSW 5.8 mph - N/A   Clear
8:58 AM 70.9 °F - 60.8 °F 70% 30.06 in 10.0 mi WSW 8.1 mph - N/A   Clear
9:58 AM 76.1 °F - 62.8 °F 63% 30.06 in 10.0 mi West 6.9 mph - N/A   Clear
10:58 AM 79.3 °F - 65.5 °F 62% 30.04 in 10.0 mi SW 6.9 mph - N/A   Clear
11:58 AM 81.7 °F 84.2 °F 66.9 °F 61% 30.03 in 10.0 mi West 8.1 mph - N/A   Clear
12:58 PM 83.7 °F 86.7 °F 68.0 °F 59% 30.01 in 10.0 mi SW 6.9 mph - N/A   Clear
1:58 PM 85.1 °F 88.8 °F 68.7 °F 58% 30.01 in 10.0 mi West 5.8 mph - N/A   Scattered Clouds
2:58 PM 86.5 °F 90.7 °F 68.9 °F 56% 29.99 in 10.0 mi Variable 6.9 mph - N/A   Partly Cloudy
3:58 PM 86.7 °F 90.6 °F 68.9 °F 55% 29.97 in 10.0 mi SW 8.1 mph - N/A   Partly Cloudy
4:58 PM 85.8 °F 89.4 °F 68.4 °F 56% 29.96 in 10.0 mi SW 9.2 mph - N/A   Clear
5:58 PM 85.5 °F 89.1 °F 68.5 °F 57% 29.97 in 10.0 mi WSW 9.2 mph - N/A   Clear
6:58 PM 81.9 °F 86.0 °F 70.9 °F 69% 29.97 in 10.0 mi SSW 2.3 mph - N/A   Clear
7:58 PM 79.7 °F - 70.9 °F 74% 29.97 in 10.0 mi Variable 4.6 mph - N/A   Clear
8:58 PM 77.5 °F - 71.1 °F 80% 29.98 in 10.0 mi South 4.6 mph - N/A   Clear
9:58 PM 76.5 °F - 70.5 °F 82% 29.98 in 10.0 mi South 3.5 mph - N/A   Clear
10:58 PM 75.2 °F - 70.5 °F 85% 29.99 in 10.0 mi South 5.8 mph - N/A   Clear
11:58 PM 73.9 °F - 69.4 °F 86% 29.99 in 10.0 mi SSW 4.6 mph - N/A   Clear